Rbgn^[z[y[W
メイン
   新天体発見情報
     Comet C/2021 A4 (NEOWISE)
投稿するにはまず登録を

スレッド表示 | 古いものから 前のトピック | 次のトピック | 下へ
投稿者 スレッド
佐藤裕久
投稿日時: 2021-1-25 18:29
モデレータ
登録日: 2005-6-12
居住地: 日本
投稿: 2687
オンライン
Comet C/2021 A4 (NEOWISE)

Jana P. Chesley (Jet推進研究所: JPL)の通報によると、1月3日UT、Near-Earth Object 
Wide-field Infrared Survey Explorer (NEOWISE:地球近傍天体広域赤外線探査衛星以前の、
WISE:広域赤外線探査衛星;CBET 4225参照)で得た赤外線画像から小惑星状天体を発見した。
小惑星センターのNEOCPとPCCP webpageに公表後、L. Buzzi (Varese, イタリア, 1月8.2日UT,
60秒45枚のスタック, 0.84-m f/3.5 反射望遠鏡, 測定はA. Aletti; 光度19.4等の集光した
10" のコマとp.a. 315°に25"の尾が見える)や佐藤裕久 (福島県須賀川市)が測定・報告, 
池村俊彦氏が観測, 新城観測所, 2021年1月8.8日, 60秒露出9枚のスタック, 0.35-m f/5 反射
望遠鏡;  全光度18.5等の強く集光した約8"のコマが見えるが尾はない。10.8日, 60秒露出17枚
のスタック, 全光度18.4等の強く集光した約8"のコマが見え、p.a. 約300°に向かって約11"の
コマが見える。14.8日,  60秒露出16枚のスタック, 全光度18.1等の強く集光した約10"のコマ
が見えるが尾はない)や佐藤英貴氏(東京都文京区,1月9.49日, 60秒露出12枚のスタック, 0.43-m
 f/6.8 アストログラフ, Mayhill近郊, ニューメキシコ州, 遠隔操作: 強く集光した8"のコマが
見えるが尾はない。5".7の円形範囲で測定した光度は19.0等であった)らCCD位置観測者によって
彗星状と観測された。

彗星機能の報告は次の通り:

OC   Date        Reporter           Coma    Tail    PA          Exposures
807  2021-01-08  A. Aletti          10"      25"    315          45x60s
H06  2021-01-08  H. Sato             8"                           9x60s
H06  2021-01-09  H. Sato             8"                          12x60s
Q11  2021-01-10  H. Sato             8"      11"    300          17x60s

発見位置は次のとおり、

     2021 UT             R.A. (2000) Decl.       Mag.
     Jan.  3.91863   14 25 40.77   +39 07 01.2    20
           4.04928   14 25 38.85   +39 09 40.2
           4.11473   14 25 37.91   +39 10 57.5
           4.24551   14 25 36.06   +39 13 35.9
           4.31083   14 25 35.20   +39 14 54.8
           4.44161   14 25 32.98   +39 17 39.3
           4.50693   14 25 31.91   +39 18 57.2
           4.57238   14 25 30.76   +39 20 19.0

MPCの放物線軌道要素、位置推算表は次のとおり、

Orbital elements:
    C/2021 A4 (NEOWISE)                                                         
Epoch 2021 Mar. 7.0 TT = JDT 2459280.5                                          
T 2021 Mar. 19.91436 TT                                 Rudenko                 
q   1.1462653            (2000.0)            P               Q                  
z  +0.0186824      Peri.  204.53211     -0.42610688     +0.51774316             
 +/-0.0030915      Node   307.05707     +0.90421839     +0.21774901             
e   0.9785850      Incl.  111.62382     -0.02867098     -0.82736170             
From 97 observations 2021 Jan. 3-15, mean residual 0".6.                        
                                                                                
    C/2021 A4 (NEOWISE)                                                         
Epoch 2020 Dec. 17.0 TT = JDT 2459200.5                                         
T 2021 Mar. 19.91618 TT                                 Rudenko                 
q   1.1462478            (2000.0)            P               Q                  
z  +0.0187013      Peri.  204.53417     -0.42608870     +0.51775952             
 +/-0.0030915      Node   307.05713     +0.90422602     +0.21771738             
e   0.9785637      Incl.  111.62389     -0.02870065     -0.82735979             
From 97 observations 2021 Jan. 3-15, mean residual 0".6.                        
                                                                                
Ephemeris:
Date    TT    R. A. (2000) Decl.     Delta      r    Elong.  Phase   m1
2020 12 16    14 23 20.6 +35 24 06   1.8270  1.8232    74.1    31.3  19.9
...
2020 12 31    14 26 12.5 +37 57 08   1.4226  1.6639    85.4    36.1  19.0
...
2021 01 08    14 24 10.4 +40 39 06   1.1985  1.5822    92.4    38.4  18.4
...
2021 01 14    14 19 13.2 +43 42 05   1.0298  1.5230    98.3    39.7  17.9
2021 01 15    14 17 56.4 +44 19 32   1.0018  1.5134    99.3    39.9  17.8
2021 01 16    14 16 29.2 +44 59 20   0.9740  1.5038   100.4    40.1  17.7
...
2021 01 22    14 02 37.5 +49 57 31   0.8102  1.4477   107.2    40.5  17.1
...
2021 01 30    13 12 18.2 +60 04 47   0.6111  1.3776   117.4    39.4  16.3
...
2021 02 14    06 08 22.8 +55 14 56   0.4372  1.2647   120.1    42.5  15.2

(MPEC 2021-A207、CBET 4914)

スレッド表示 | 古いものから 前のトピック | 次のトピック | トップ

投稿するにはまず登録を
 
© 1999 Tsutomu Seki.